This is the latest recevied weather packets stored in our database for station/object WC4PEM-1. If no packets are shown the sender has not sent any weather packets the latest 10 day(s).
| Time | Temp. | Humidity | Pressure | Rain* | Wind** | Luminosity | Snow |
|---|---|---|---|---|---|---|---|
| 1777212828 | 25° C | 75% | 1011.7 hPa | 0 mm | - | 534 W/m² | - |
| 1777212528 | 25° C | 76% | 1011.6 hPa | 0 mm | - | 466 W/m² | - |
| 1777212228 | 24.44° C | 78% | 1011.6 hPa | 0 mm | - | 454 W/m² | - |
| 1777211928 | 24.44° C | 77% | 1011.7 hPa | 0 mm | - | 179 W/m² | - |
| 1777211628 | 24.44° C | 77% | 1011.7 hPa | 0 mm | - | 376 W/m² | - |
| 1777211328 | 24.44° C | 78% | 1011.8 hPa | 0 mm | - | 98 W/m² | - |
| 1777211028 | 23.89° C | 78% | 1011.8 hPa | 0 mm | - | 162 W/m² | - |
| 1777210728 | 23.89° C | 79% | 1011.7 hPa | 0 mm | - | 118 W/m² | - |
| 1777210429 | 23.33° C | 80% | 1011.7 hPa | 0 mm | - | 81 W/m² | - |
| 1777210128 | 23.33° C | 81% | 1011.7 hPa | 0 mm | - | 76 W/m² | - |
| 1777209828 | 22.78° C | 82% | 1011.7 hPa | 0 mm | - | 72 W/m² | - |
| 1777209528 | 22.78° C | 83% | 1011.6 hPa | 0 mm | - | 69 W/m² | - |
| 1777209337 | 22.22° C | 84% | 1011.6 hPa | 0 mm | - | 69 W/m² | - |
| 1777209229 | 22.22° C | 84% | 1011.6 hPa | 0 mm | - | 69 W/m² | - |
| 1777208928 | 22.22° C | 84% | 1011.6 hPa | 0 mm | - | 69 W/m² | - |
| 1777208629 | 21.67° C | 84% | 1011.8 hPa | 0 mm | - | 83 W/m² | - |
| 1777208503 | 21.67° C | 85% | 1011.9 hPa | 0 mm | - | 83 W/m² | - |
| 1777208328 | 21.67° C | 85% | 1011.9 hPa | 0 mm | - | 83 W/m² | - |
| 1777208028 | 21.67° C | 85% | 1011.9 hPa | 0 mm | - | 76 W/m² | - |
| 1777207728 | 21.67° C | 85% | 1011.8 hPa | 0 mm | - | 72 W/m² | - |
| 1777207428 | 21.67° C | 85% | 1011.8 hPa | 0 mm | - | 93 W/m² | - |
| 1777207129 | 21.67° C | 86% | 1011.8 hPa | 0 mm | - | 232 W/m² | - |
| 1777206828 | 21.11° C | 86% | 1011.7 hPa | 0 mm | - | 220 W/m² | - |
| 1777206528 | 21.11° C | 87% | 1011.6 hPa | 0 mm | - | 200 W/m² | - |
| 1777206228 | 21.11° C | 87% | 1011.7 hPa | 0 mm | - | 102 W/m² | - |
* Rain latest hour (hover to see other rain measurements)
** Current wind speed in m/s (hover to see current wind gust speed)